AO-07 1 07530U 74089B 19143.13182965 -.00000030 00000-0 91643-4 0 9997 2 07530 101.7418 111.0674 0012522 39.8104 23.2417 12.53638167 37197 UO-11 1 14781U 84021B 19143.38751689 .00000053 00000-0 12611-4 0 9994 2 14781 97.6126 169.3473 0009691 53.0198 307.1902 14.83085498894865 LO-19 1 20442U 90005G 19143.76323474 .00000008 00000-0 19106-4 0 9999 2 20442 98.6471 85.8090 0010895 222.0196 138.0152 14.32925413532660 HUBBLE 1 20580U 90037B 19143.10983591 .00000358 00000-0 10863-4 0 9996 2 20580 28.4705 27.7079 0002697 194.9680 299.2058 15.09226697396871 MET-2/21 1 22782U 93055A 19143.73360434 .00000008 00000-0 -62540-5 0 9992 2 22782 82.5491 183.6730 0020957 249.9484 248.7719 13.83817351299270 AO-27 1 22825U 93061C 19143.82215668 -.00000013 00000-0 13039-4 0 9999 2 22825 98.9022 131.8706 0009515 76.1312 284.0927 14.30058769338253 IO-26 1 22826U 93061D 19143.20029699 -.00000007 00000-0 15138-4 0 9994 2 22826 98.8962 131.2294 0009995 67.8959 292.3282 14.30392245338366 FO-29 1 24278U 96046B 19143.37334424 -.00000038 00000-0 37971-6 0 9991 2 24278 98.5335 300.3582 0349527 308.3890 48.6330 13.53091218124240 NOAA-15 1 25338U 98030A 19143.52355052 .00000050 00000-0 39939-4 0 9998 2 25338 98.7484 164.8347 0009631 324.4240 35.6296 14.25909196 93519 GO-32 1 25397U 98043D 19142.91274726 -.00000005 00000-0 16965-4 0 9992 2 25397 98.6873 83.3838 0002371 102.0143 258.1302 14.23665485 84069 ISS 1 25544U 98067A 19144.02961655 -.00142555 00000-0 -24374-2 0 9999 2 25544 51.6423 121.2018 0006014 330.3991 140.5471 15.51085053171506 NO-44 1 26931U 01043C 19143.14297956 -.00000024 00000-0 22713-4 0 9996 2 26931 67.0521 72.1880 0006387 279.9208 80.1172 14.30542304921176 SO-50 1 27607U 02058C 19142.57227052 -.00000049 00000-0 14054-4 0 9996 2 27607 064.5533 132.5098 0082081 261.7125 097.4663 14.75546746882902 CO-55 1 27844U 03031E 19143.55152058 .00000030 00000-0 33069-4 0 9999 2 27844 98.6844 152.1555 0011076 105.2229 255.0174 14.22177209824571 CO-57 1 27848U 03031J 19142.48059637 .00000019 00000-0 28482-4 0 9993 2 27848 98.6922 151.5946 0010856 118.1945 242.0330 14.21772141824274 RS-22 1 27939U 03042A 19143.85265036 .00000098 00000-0 26153-4 0 9990 2 27939 98.0366 280.1784 0013747 144.7891 215.4224 14.66780173836752 NOAA-18 1 28654U 05018A 19143.21310203 .00000077 00000-0 66787-4 0 9991 2 28654 99.0982 189.7824 0013283 250.2594 109.7145 14.12425319721770 CO-58 1 28895U 05043F 19143.18881971 .00000079 00000-0 24050-4 0 9996 2 28895 97.9554 286.8345 0018183 77.0309 283.2923 14.63661418723614 Falconsat-3 1 30776U 07006E 19143.36670975 .00001607 00000-0 46120-4 0 9998 2 30776 35.4348 258.6742 0003247 243.1804 116.8591 15.36098528676630 CO-65 1 32785U 08021C 19143.73389824 .00000154 00000-0 22293-4 0 9990 2 32785 97.5494 144.6732 0012931 356.5066 3.6059 14.88299850599829 AAUSAT2 1 32788U 08021F 19143.80915440 .00000351 00000-0 37301-4 0 9995 2 32788 97.4981 160.6847 0010127 290.0801 69.9329 14.94704601601057 DO-64 1 32789U 08021G 19143.72115990 .00000432 00000-0 32953-4 0 9997 2 32789 97.4662 194.1683 0011498 206.5248 153.5393 15.06897002603058 CO-66 1 32791U 08021J 19143.05767092 .00000147 00000-0 20248-4 0 9999 2 32791 97.5283 149.9743 0012528 333.3059 26.7513 14.90804686600140 RS-30 1 32953U 08025A 19143.80921520 .00000020 00000-0 75656-4 0 9997 2 32953 82.5014 160.8617 0018952 181.6090 178.4930 12.43089625499096 PRISM 1 33493U 09002B 19143.32051788 .00000859 00000-0 80869-4 0 9992 2 33493 98.1225 63.2743 0013525 270.9276 89.0395 14.96627412561205 NOAA-19 1 33591U 09005A 19143.54821259 .00000078 00000-0 67394-4 0 9997 2 33591 99.1791 134.0408 0015055 91.7505 268.5390 14.12352857530225 TISAT-1 1 36799U 10035E 19143.10836955 .00000347 00000-0 41080-4 0 9999 2 36799 98.1524 294.3851 0012637 167.1266 193.0276 14.91085665480808 JUGNU 1 37839U 11058B 19143.33164035 .00000303 00000-0 20065-4 0 9991 2 37839 19.9599 134.6242 0019052 37.1192 97.7534 14.12650882393520 SRMSAT 1 37841U 11058D 19142.63250947 .00000306 00000-0 22660-4 0 9990 2 37841 019.9706 195.0828 0011643 259.6423 219.7514 14.10632117392779 AO-71 1 37854U 11061E 19143.25833631 .00000407 00000-0 28922-4 0 9993 2 37854 101.7046 27.9242 0161008 144.3217 216.8884 15.06350979413013 HRBE 1 37855U 11061F 19142.94740281 .00000937 00000-0 54781-4 0 9997 2 37855 101.7181 24.8170 0173798 156.0610 204.8807 15.05354856412755 ALMASAT-1 1 38078U 12006B 19143.71277222 .00014337 40785-5 86386-4 0 9995 2 38078 69.4292 340.6115 0167235 301.9265 130.1687 15.61958820393433 HORYU-2 1 38340U 12025D 19143.06397614 .00000123 00000-0 26043-4 0 9997 2 38340 98.3312 180.8525 0010988 202.5834 157.4892 14.75709111377239 RS-40 1 38735U 12041C 19143.21820925 -.00000017 00000-0 -19149-3 0 9998 2 38735 82.4771 244.5826 0015635 293.2298 66.7135 12.42577970309265 BEESAT-3 1 39135U 13015F 19143.38076960 .00000737 00000-0 46496-4 0 9998 2 39135 64.8660 123.6060 0017177 324.6318 35.3667 15.17408378336254 BEESAT-2 1 39136U 13015G 19143.34198230 .00000476 00000-0 34015-4 0 9994 2 39136 64.8679 127.4733 0017722 307.4516 52.4997 15.16846204336179 ZACUBE-1 1 39417U 13066B 19143.15459727 .00000147 00000-0 24786-4 0 9991 2 39417 97.5636 158.1466 0060383 120.2625 240.4584 14.81102953297112 TRITON-1 1 39427U 13066M 19143.55098222 .00000127 00000-0 28536-4 0 9990 2 39427 97.6743 122.5474 0112345 248.9561 109.9600 14.67828855294508 GOMX-1 1 39430U 13066Q 19143.84043802 .00000184 00000-0 42498-4 0 9996 2 39430 97.7447 102.0990 0151098 336.3665 23.0658 14.59242297292839 LO-74 1 39440U 13066AA 19143.58060251 .00000131 00000-0 25140-4 0 9992 2 39440 97.6019 143.5608 0080575 168.6903 191.6142 14.75841959296126 AO-73 1 39444U 13066AE 19143.03475392 .00000193 00000-0 29977-4 0 9992 2 39444 97.5618 159.9526 0059601 114.7787 245.9643 14.81918912295985 SPROUT 1 39770U 14029E 19143.73019891 .00000686 00000-0 82126-4 0 9991 2 39770 97.8823 247.1969 0009500 162.2428 197.9157 14.87310414270979 DUCHIFAT-1 1 40021U 14033M 19143.83420776 .00000159 00000-0 22067-4 0 9999 2 40021 97.9238 68.3429 0013945 130.6211 229.6222 14.90608187267694 NANOSATCBR1 1 40024U 14033Q 19142.97427266 .00000207 00000-0 27474-4 0 9998 2 40024 97.9139 64.9704 0013130 136.1730 224.0531 14.89824906267462 EO-79 1 40025U 14033R 19143.82693110 .00000157 00000-0 22663-4 0 9996 2 40025 97.9065 63.5520 0013323 139.2001 221.0215 14.88927868267478 DTUSAT-2 1 40030U 14033W 19143.74869817 .00000148 00000-0 21936-4 0 9994 2 40030 97.8985 61.6773 0012878 135.0093 225.2170 14.88522053267396 EO-80 1 40032U 14033Y 19143.82047171 .00000154 00000-0 22616-4 0 9999 2 40032 97.8993 61.7498 0012807 135.4507 224.7741 14.88463947267392 ANTELSAT 1 40034U 14033AA 19143.16461739 .00000147 00000-0 29282-4 0 9996 2 40034 97.7644 11.4641 0058577 180.6467 179.4676 14.74090883264760 VELOX-1 1 40057U 14034E 19143.80946091 .00000252 00000-0 42834-4 0 9997 2 40057 98.2304 266.3443 0010240 323.5884 36.4627 14.77649902263943 DAURIA DX 1 1 40071U 14037C 19143.81805444 .00000074 00000-0 17063-4 0 9991 2 40071 98.4217 296.3858 0007644 315.5571 44.5031 14.81264277263420 UKUBE-1 1 40074U 14037F 19143.80672646 .00000218 00000-0 33384-4 0 9993 2 40074 98.4346 304.3014 0003189 320.1180 39.9798 14.84035886263814 HODOYOSHI-1 1 40299U 14070B 19143.83273414 .00000416 00000-0 20430-4 0 9990 2 40299 97.3485 224.1222 0013974 127.8071 327.6194 15.23336054252336 CHUBUSAT-1 1 40300U 14070C 19143.83234831 .00000562 00000-0 27486-4 0 9993 2 40300 97.3265 218.6633 0020214 143.1425 354.5307 15.22051444252081 QSAT-EOS 1 40301U 14070D 19143.81075294 .00001367 00000-0 55701-4 0 9993 2 40301 97.3267 221.5254 0026926 127.5423 13.3356 15.25843089252346 FIREBIRD FU3 1 40377U 15003B 19143.39702157 .00000838 00000-0 37289-4 0 9994 2 40377 99.1117 118.2605 0127389 177.5782 182.6092 15.18670616237934 FIREBIRD FU4 1 40378U 15003C 19143.84551853 .00000829 00000-0 36877-4 0 9992 2 40378 99.1120 118.8755 0127637 175.9712 184.2577 15.18676896238003 GRIFEX 1 40379U 15003D 19143.84605293 .00000502 00000-0 26041-4 0 9991 2 40379 99.1108 113.1024 0135187 194.0101 165.7361 15.15399854237670 NO-84 1 40654U 15025D 19143.41260636 .00004631 00000 0 71787-4 0 6228 2 40654 54.9906 292.5776 0135275 258.2215 100.3571 15.46600668108389 NO-83 1 40655U 15025E 19143.35543027 .00027631 10738-4 16572-3 0 7488 2 40655 54.9663 183.6418 0061350 327.9388 31.7846 15.76849682109567 DEORBITSAIL 1 40719U 15032E 19143.70476417 .00000302 00000-0 50287-4 0 9997 2 40719 97.9113 36.0538 0017445 33.9145 326.3177 14.76717857208422 NUDT-PHONESAT 1 40900U 15049B 19143.82378534 .00001546 00000-0 69334-4 0 9995 2 40900 97.4371 153.4139 0010956 277.1145 207.4588 15.22688276203725 XW-2A 1 40903U 15049E 19143.74845286 .00001409 00000-0 35324-4 0 9992 2 40903 97.3395 186.3630 0011948 235.5935 190.4943 15.41752736206252 XW-2C 1 40906U 15049H 19143.85934122 .00000551 00000-0 32423-4 0 9999 2 40906 97.4662 146.3675 0013333 292.8629 186.6205 15.15642736203089 XW-2D 1 40907U 15049J 19143.70237242 .00000227 00000-0 15330-4 0 9991 2 40907 97.4644 145.8903 0012658 290.1357 158.0807 15.15824921203074 LILACSAT-2 1 40908U 15049K 19143.74737432 .00000326 00000-0 21670-4 0 9996 2 40908 97.4768 144.8300 0014557 296.2074 150.8127 15.13781708202881 XW-2E 1 40909U 15049L 19143.80435477 .00000936 00000-0 49677-4 0 9992 2 40909 97.4588 148.7254 0011874 285.5524 198.8153 15.17728944203264 XW-2F 1 40910U 15049M 19143.82700583 .00000701 00000-0 38592-4 0 9993 2 40910 97.4621 147.9420 0013026 281.9837 201.2903 15.17241469203093 XW-2B 1 40911U 15049N 19143.78199074 .00000698 00000-0 40048-4 0 9990 2 40911 97.4672 146.6094 0012558 291.1128 59.6426 15.15759277202978 DCBB 1 40912U 15049P 19143.69363872 .00000820 00000-0 41742-4 0 9999 2 40912 97.4490 151.3858 0013176 263.5203 186.7251 15.19545385203361 TW-1C 1 40926U 15051B 19143.85278400 .00008411 00000-0 12563-3 0 9999 2 40926 97.1366 190.0665 0010114 107.0196 339.0173 15.55225466206143 TW-1A 1 40928U 15051D 19143.83234983 .00002145 00000-0 54572-4 0 9992 2 40928 97.1466 175.7083 0011624 159.0211 255.2377 15.40625247205196 IO-86 1 40931U 15052B 19139.96777004 -.00000245 00000-0 -12379-3 0 9991 2 40931 5.9965 268.5989 0015469 119.3214 240.8665 14.76593972196860 LQSat 1 40958U 15057A 19143.75191160 -.00000141 00000-0 -14135-4 0 9998 2 40958 97.8987 213.6455 0017546 328.8566 31.1603 14.73077574194983 AO-85 1 40967U 15058D 19143.50470002 .00000125 00000-0 31507-4 0 06974 2 40967 064.7775 237.8946 0203146 211.0145 147.8848 14.75940094103875 ATHENOXAT-1 1 41168U 15077C 19142.95152499 .00001548 00000-0 46522-4 0 9992 2 41168 14.9885 52.0320 0011448 82.3135 277.8485 15.13581436189926 ChubuSat-2 1 41338U 16012B 19142.87682955 .00000266 00000-0 13929-4 0 9998 2 41338 031.0036 315.1808 0013858 198.2937 161.7201 15.00143016178885 ChubuSat-3 1 41339U 16012C 19143.78088244 .00000279 00000-0 14925-4 0 9992 2 41339 31.0115 307.5631 0013421 214.2756 145.7004 15.00319780179019 Horyu-4 1 41340U 16012D 19143.50812672 .00000364 00000-0 20896-4 0 9993 2 41340 31.0052 300.9574 0014111 229.8466 130.0934 15.01250852179071 OUFTI-1 1 41458U 16025C 19143.27414574 .00000979 00000-0 53433-4 0 9995 2 41458 98.1009 228.7772 0168230 86.0105 276.0331 15.05744100168606 e-st@r-II 1 41459U 16025D 19143.81609625 .00001241 00000-0 66872-4 0 9993 2 41459 98.1012 229.0252 0169709 85.5217 276.5345 15.05397041168651 AAUSAT4 1 41460U 16025E 19143.75743461 .00002026 00000-0 10454-3 0 9991 2 41460 98.0967 230.1399 0159372 78.7497 283.1589 15.07254128168761 LO-87 1 41557U 16033B 19143.83520260 .00000828 00000-0 33800-4 0 9995 2 41557 97.4173 231.4868 0014717 35.5895 324.6322 15.27150897166147 NuSat2 1 41558U 16033C 19143.83645212 .00000868 00000-0 33386-4 0 9994 2 41558 97.4199 232.4503 0013803 37.1114 323.1078 15.29055241166185 Lapan A3 1 41603U 16040E 19143.83483997 .00000077 00000-0 67424-5 0 9996 2 41603 97.3616 203.1820 0014776 125.2185 326.5711 15.19707232161812 Swayam 1 41607U 16040J 19143.71779285 .00001032 00000-0 46451-4 0 9993 2 41607 97.3672 206.2474 0015072 119.6809 240.5931 15.23221748161926 Pratham 1 41783U 16059A 19143.13105765 .00000037 00000-0 16443-4 0 9992 2 41783 98.0692 203.2963 0034969 107.1131 253.3906 14.62991456141662 AlSat 1N 1 41789U 16059G 19143.75737767 .00000081 00000-0 24342-4 0 9995 2 41789 98.0717 205.8461 0029752 95.0714 265.3882 14.64239541141852 ScatSat 1 41790U 16059H 19143.23796844 -.00000001 00000-0 10899-4 0 9996 2 41790 98.2114 188.9539 0019318 125.4042 234.8961 14.50878692140492 TY-1 1 41844U 16066D 19143.84007036 .00000555 00000-0 25637-4 0 9998 2 41844 97.4045 151.5169 0013492 281.6398 201.1185 15.24238232140753 Pegasus-1 1 41846U 16066F 19143.08205184 .00000270 00000-0 52423-4 0 9997 2 41846 98.7097 182.8445 0366436 317.6413 39.7045 14.37555300132737 CAS-2T 1 41847U 16066G 19143.16777242 .00000004 00000-0 11988-4 0 9992 2 41847 98.7081 183.4650 0365090 313.9990 43.1627 14.37982003133189 EO-88 1 42017U 17008BX 19143.72185628 .00000960 00000-0 40812-4 0 9991 2 42017 97.4044 211.0820 0004564 256.3469 103.7261 15.25452603125968 ZA-AeroSat 1 42713U 98067LU 19143.19809843 .00460135 12364-3 38811-3 0 9999 2 42713 51.6234 39.2804 0005094 229.6884 130.3687 16.13015189115261 NJUST-1 1 42722U 98067MB 19143.82850916 .00098823 14991-4 26591-3 0 9998 2 42722 51.6333 45.7717 0005117 131.5246 340.7229 15.94283486114303 nSIGHT1 1 42726U 98067MF 19143.24632474 .00014166 00000-0 11795-3 0 9995 2 42726 51.6369 83.8846 0006117 75.2833 284.8842 15.70402018113664 Aoxiang-1 1 42735U 98067MQ 19143.73538049 .00139128 19295-4 27738-3 0 9992 2 42735 51.6256 42.7093 0003640 136.7748 318.9905 15.99550697115460 CAS-4B 1 42759U 17034B 19143.79044484 .00000038 00000-0 15855-4 0 9999 2 42759 43.0204 13.0309 0010013 84.3899 320.9895 15.09569736106929 CAS-4A 1 42761U 17034D 19143.75303150 .00000259 00000-0 29361-4 0 9998 2 42761 43.0207 12.7888 0010392 85.2440 309.9444 15.09648560106914 UCLSat 1 42765U 17036A 19142.85692343 .00000784 00000-0 36584-4 0 9997 2 42765 97.3530 201.4379 0010496 332.1294 27.9379 15.22682054106383 NIUSat 1 42766U 17036B 19143.71663023 .00000602 00000-0 30143-4 0 9991 2 42766 97.3528 200.7678 0014390 316.1975 43.8119 15.21057317106285 LituanicaSAT 2 1 42768U 17036D 19143.09911678 .00001322 00000-0 59625-4 0 9992 2 42768 97.3564 201.2631 0013789 318.5847 41.4344 15.22692138106266 Aalto 1 1 42775U 17036L 19143.28675968 .00000499 00000-0 25356-4 0 9998 2 42775 97.3516 200.6683 0012761 318.4168 41.6096 15.21295515106190 URSA MAIOR 1 42776U 17036M 19143.77593927 .00000529 00000-0 26592-4 0 9994 2 42776 97.3524 201.2852 0012547 316.5543 43.4703 15.21424842106274 Max Valier Sat 1 42778U 17036P 19143.16458992 .00000620 00000-0 30163-4 0 9992 2 42778 97.3563 201.4125 0011185 324.3828 35.6661 15.21966163106200 Pegasus 1 42784U 17036V 19143.13976306 .00000719 00000-0 34060-4 0 9999 2 42784 97.3534 201.5448 0011069 331.1039 28.9584 15.22432252106224 NUDATSat 1 42787U 17036Y 19143.21981791 .00001976 00000-0 85974-4 0 9991 2 42787 97.3565 202.2534 0011880 330.0717 29.9842 15.23369416106115 SUCHAI 1 1 42788U 17036Z 19143.67966600 .00000843 00000-0 38952-4 0 9990 2 42788 97.3538 202.3540 0010554 328.5406 31.5198 15.22837156106391 SKCUBE 1 42789U 17036AA 19142.83950232 .00000842 00000-0 39013-4 0 9990 2 42789 097.3535 201.4796 0010500 331.9510 028.1160 15.22740289106185 VZLUSAT 1 1 42790U 17036AB 19142.28704221 .00001112 00000-0 49701-4 0 9992 2 42790 097.3550 201.3455 0010075 333.4896 026.5824 15.23364266106127 VENTA 1 1 42791U 17036AC 19142.22244004 .00000772 00000-0 36001-4 0 9995 2 42791 097.3535 200.9270 0010241 335.0852 024.9889 15.22757891106083 Robusta 1B 1 42792U 17036AD 19143.16750148 .00000843 00000-0 38894-4 0 9992 2 42792 97.3535 201.9411 0010066 331.8183 28.2508 15.22904248106252 D-SAT 1 42794U 17036AF 19143.09892629 .00000044 00000-0 94292-5 0 9995 2 42794 97.5419 188.9684 0125424 229.8139 129.2047 14.91080169104378 BIRD-G 1 42821U 98067MV 19141.12262304 .05646920 12275-4 57384-3 0 9996 2 42821 51.6069 51.4641 0009625 251.4299 108.5681 16.36973497107249 TechnoSat 1 42829U 17042E 19143.77363993 .00000160 00000-0 21537-4 0 9993 2 42829 97.5669 37.7290 0015133 141.3199 218.9106 14.90963779101079 TOMSK-TPU 120 1 42910U 98067MZ 19143.82973042 .00039584 00000-0 19430-3 0 9998 2 42910 51.6358 63.9064 0005919 82.1990 20.5610 15.81784138100930 TANYUSHA 1 1 42911U 98067NA 19143.82669544 .00086500 13957-4 27007-3 0 9996 2 42911 51.6242 54.6981 0005209 102.0794 5.9561 15.91543897101034 TANYUSHA 2 1 42912U 98067NB 19143.71795035 .00060282 00000-0 23435-3 0 9991 2 42912 51.6376 60.2442 0005308 92.5816 354.3943 15.86516590100977 TNS 0-2 1 42914U 98067ND 19143.22771312 .00036790 00000-0 17732-3 0 9991 2 42914 51.6354 67.7075 0005201 78.9410 281.2177 15.82219197100829 QIKCOM-1 1 42983U 98067NF 19143.80289471 .00001940 00000-0 31237-4 0 9997 2 42983 51.6396 110.1876 0004622 35.8651 324.2651 15.58682524 89303 AO-91 1 43017U 17073E 19143.74547048 .00000214 00000-0 22773-4 0 9992 2 43017 97.7236 66.1191 0256930 242.7914 114.6904 14.78528621 81423 EcAMSat 1 43019U 98067NG 19143.81068443 .00003722 00000-0 49643-4 0 9993 2 43019 51.6404 105.7780 0005039 18.6760 341.4417 15.60959848171684 PICSAT 1 43132U 18004X 19143.16916902 .00000837 00000-0 38077-4 0 9995 2 43132 97.4897 211.0369 0009472 358.1603 1.9597 15.23503699 75465 AO-92 1 43137U 18004AC 19143.68445914 .00000656 00000-0 30556-4 0 9990 2 43137 97.4889 211.5430 0009062 358.5989 1.5221 15.23410041 75537 TianYi 2 1 43155U 18008A 19143.85342669 .00000588 00000-0 38786-4 0 9993 2 43155 97.4872 216.9351 0019219 56.8484 35.1369 15.11101144 73928 Zhou Enlai 1 43156U 18008B 19143.83442057 .00000609 00000-0 40581-4 0 9994 2 43156 97.4913 216.8152 0016274 55.8657 83.2003 15.10600525 73893 TianYi 6 1 43158U 18008D 19143.80654734 .00000817 00000-0 53732-4 0 9993 2 43158 97.4855 216.3022 0014971 53.8140 86.1524 15.10202286 73856 S-Net G 1 43186U 18014G 19142.81543029 .00000326 00000-0 33688-4 0 9998 2 43186 97.7109 51.6575 0012565 95.5670 264.6985 14.96629173 71115 S-Net H 1 43187U 18014H 19143.61756091 .00000402 00000-0 40282-4 0 9996 2 43187 97.7107 52.4371 0012612 93.2012 267.0653 14.96629973 71235 S-Net J 1 43188U 18014J 19142.81504615 .00000316 00000-0 32756-4 0 9992 2 43188 97.7110 51.6620 0012550 95.5274 264.7380 14.96628841 71115 S-Net K 1 43189U 18014K 19142.81537499 .00000322 00000-0 33324-4 0 9998 2 43189 97.7107 51.6441 0012550 95.5704 264.6949 14.96628770 69669 FMN 1 1 43192U 18015A 19142.94205461 .00001520 00000-0 65141-4 0 9991 2 43192 097.3953 271.0352 0017395 032.5990 327.6313 15.24177399072248 Shaonian Xing 1 43199U 18015H 19143.88107361 .00001131 00000-0 48415-4 0 9995 2 43199 97.3740 271.1407 0018410 40.0588 320.1995 15.24716657 72438 1KUNS-PF 1 43466U 98067NP 19143.36289001 .00013017 00000-0 13356-3 0 9993 2 43466 51.6371 107.9794 0002077 51.0903 309.0277 15.65315687 58793 UBAKUSAT 1 43467U 98067NQ 19143.51014762 .00006787 00000-0 81228-4 0 9991 2 43467 51.6369 110.4601 0002578 1.5198 358.5803 15.62287542 58787 Irazu 1 43468U 98067NR 19142.37684800 .00016787 00000-0 15462-3 0 9998 2 43468 51.6362 110.3773 0002393 52.7324 307.3890 15.67775559158665 EnduroSat One 1 43551U 98067NZ 19143.33840723 .00009936 00000-0 11645-3 0 9993 2 43551 51.6374 113.8108 0006987 49.4858 310.6743 15.62204220 48950 EQUISat 1 43552U 98067PA 19143.36315074 .00007740 00000-0 95923-4 0 9996 2 43552 51.6384 114.7411 0007189 48.6511 311.5100 15.61117141 48907 UiTMSat 1 1 43589U 98067PD 19143.17543597 .00008747 00000-0 10746-3 0 9995 2 43589 51.6357 116.4457 0006598 54.8414 305.3197 15.61151041 44607 Maya 1 1 43590U 98067PE 19143.29889494 .00008326 00000-0 10251-3 0 9993 2 43590 51.6361 115.7741 0006724 55.5444 304.6184 15.61173500 44550 Bhutan 1 1 43591U 98067PF 19143.16248383 .00008034 00000-0 98928-4 0 9990 2 43591 51.6369 116.3788 0006869 55.9052 304.2592 15.61225450 44535 SiriusSat 1 1 43595U 98067PG 19143.19958995 .00008382 00000-0 10592-3 0 9990 2 43595 51.6360 117.3592 0004328 22.9877 337.1309 15.60480020 43705 SiriusSat 2 1 43596U 98067PH 19143.35532617 .00008129 00000-0 10353-3 0 9992 2 43596 51.6371 116.9297 0004892 22.5552 337.5656 15.60319406 43727 Tanusha-3 1 43597U 98067PJ 19143.18516274 .00009964 00000-0 11919-3 0 9992 2 43597 51.6355 116.4900 0004707 35.2711 324.8593 15.61674041 43717 SurfSat 1 43614U 18070B 19143.23721077 .00001731 00000-0 47182-4 0 9999 2 43614 93.0244 352.7652 0018282 53.6932 306.6006 15.37424323 38344 CP-7 DAVE 1 43615U 18070C 19143.30673874 .00001634 00000-0 44634-4 0 9990 2 43615 93.0245 352.7954 0018432 53.0482 307.2456 15.37352147 38353 ELFIN-B 1 43616U 18070D 19143.64999327 .00002256 00000-0 60403-4 0 9995 2 43616 93.0210 352.8546 0019325 55.1316 305.1751 15.37923422 38417 ELFIN-A 1 43617U 18070E 19143.64451105 .00002171 00000-0 58109-4 0 9999 2 43617 93.0266 353.0473 0018305 52.7070 307.5849 15.37960185 38419 STARS-Me Mother 1 43640U 98067PQ 19143.32522954 .00005277 00000-0 75251-4 0 9992 2 43640 51.6369 119.7202 0005916 7.4660 352.6420 15.58126884 35610 CubeBel 1 1 43666U 18083E 19143.77257671 .00000812 00000-0 43812-4 0 9998 2 43666 97.5201 168.4246 0013539 280.8273 167.4353 15.17530557 31353 Changshagaoxin 1 43669U 18083H 19143.19688732 .00000441 00000-0 25903-4 0 9992 2 43669 97.5080 167.2423 0009257 273.3315 86.6859 15.16751429 31211 Ten-Koh 1 43677U 18084G 19142.89758475 .00000011 00000-0 69495-5 0 9998 2 43677 97.8484 256.8073 0016354 16.0994 344.0740 14.90160925 30628 PO-101 1 43678U 18084H 19143.84492699 -.00000069 00000-0 -11645-5 0 9997 2 43678 97.8474 258.2065 0010990 34.8127 325.3796 14.91550097 30796 IRVINE 01 1 43693U 18088D 19143.04128026 .00001498 00000-0 65063-4 0 9997 2 43693 85.0340 335.7200 0016424 294.4658 65.4870 15.21275075 29312 QO-100 1 43700U 18090A 19142.82770337 .00000136 00000-0 00000 0 0 9995 2 43700 0.0112 289.5724 0002724 171.9855 102.3781 1.00273340 2024 Reaktor Hello World 1 43743U 18096AA 19143.75653620 .00001034 00000-0 42197-4 0 9992 2 43743 97.4605 213.7791 0019957 68.8355 84.9695 15.26553537 26775 MinXSS-2 1 43758U 18099A 19142.85439373 -.00000010 00000-0 43859-5 0 9999 2 43758 97.7459 215.2223 0016885 60.3187 299.9712 14.95386592 25424 AO-95 1 43770U 18099N 19143.19372880 .00000124 00000-0 16660-4 0 9994 2 43770 97.7460 215.3993 0015940 65.4932 294.7949 14.94746317 25463 RANGE-B 1 43772U 18099Q 19143.18454865 -.00000048 00000-0 85266-6 0 9995 2 43772 97.7514 215.5194 0015365 53.9418 306.3223 14.94848426 25450 RANGE-A 1 43773U 18099R 19143.18715693 -.00000134 00000-0 -70066-5 0 9993 2 43773 97.7408 215.2997 0014731 53.9921 306.2662 14.94788202 25457 MOVE-II 1 43780U 18099Y 19143.16581669 .00000278 00000-0 30663-4 0 9998 2 43780 97.7452 215.4011 0015045 64.2672 296.0100 14.95030379 25448 SNUSat 2 1 43782U 18099AA 19143.16048503 .00000291 00000-0 31773-4 0 9993 2 43782 97.7459 215.4341 0014085 54.5953 305.6581 14.95036469 25457 SnugLite 1 43784U 18099AC 19142.81733726 .00000606 00000-0 60365-4 0 9993 2 43784 97.7425 215.0374 0016552 62.5103 297.7798 14.95114000 25416 ITASat 1 1 43786U 18099AE 19143.15017651 .00000569 00000-0 57010-4 0 9996 2 43786 97.7478 215.4889 0016605 60.4447 299.8426 14.95122130 25467 EAGLET 1 1 43790U 18099AJ 19143.17370959 -.00000178 00000-0 -10832-4 0 9995 2 43790 97.7468 215.5919 0014889 64.8770 295.3994 14.95498840 25167 ESEO 1 43792U 18099AL 19143.17123235 -.00000223 00000-0 -14878-4 0 9995 2 43792 97.7449 215.5570 0014711 62.0584 298.2124 14.95499845 25228 CSIM 1 43793U 18099AM 19142.82643694 .00000588 00000-0 58023-4 0 9995 2 43793 97.7411 215.1280 0014538 62.6237 297.6461 14.95663548 25141 Astrocast 0.1 1 43798U 18099AS 19143.34755064 .00000556 00000-0 55104-4 0 9995 2 43798 97.7454 215.7949 0013553 47.4565 312.7798 14.95723131 25486 JO-97 1 43803U 18099AX 19142.86953528 .00000433 00000-0 44489-4 0 9991 2 43803 97.7433 215.1444 0016496 62.0935 298.1954 14.95247018 25416 Suomi 100 1 43804U 18099AY 19143.20366818 .00000447 00000-0 45825-4 0 9991 2 43804 97.7431 215.4732 0016558 61.1980 299.0901 14.95248036 25476 Al Farabi 2 1 43805U 18099AZ 19143.80226307 .00000460 00000-0 46920-4 0 9998 2 43805 97.7433 216.0749 0016553 59.5063 300.7790 14.95299363 25567 PWSat 2 1 43814U 18099BJ 19143.79653654 .00012345 00000-0 10248-2 0 9992 2 43814 97.7732 216.7338 0008368 81.7715 278.4430 14.98891299 24971 CHOMPTT 1 43855U 18104G 19142.87896190 .00000524 00000-0 20811-4 0 9991 2 43855 85.0379 74.1602 0020341 56.9407 303.3823 15.22330906 23941 ISAT 1 43879U 18111D 19143.84036555 .00000344 00000-0 35761-4 0 9994 2 43879 97.7201 52.2192 0014779 107.7677 252.5158 14.95970740 20087 UWE-4 1 43880U 18111E 19143.28125044 .00000436 00000-0 43749-4 0 9993 2 43880 97.7205 51.7412 0013794 111.2174 249.0522 14.96208298 20001 Sparrow 1 43881U 18111F 19142.94247383 .00000258 00000-0 27906-4 0 9996 2 43881 97.7208 51.4244 0013832 111.1531 249.1170 14.96254514 19958 Lume 1 1 43908U 18111AJ 19142.81977119 .00000777 00000-0 34476-4 0 9995 2 43908 97.2920 48.8012 0023518 86.5501 273.8426 15.24277754 22350 FO-98 1 43933U 19003B 19143.77459067 .00000510 00000-0 25522-4 0 9994 2 43933 97.2822 202.1702 0018039 171.2614 284.1840 15.21591562 19117 FO-99 1 43937U 19003F 19143.75844580 .00001068 00000-0 47283-4 0 9991 2 43937 97.2777 202.4133 0025246 159.7294 320.9463 15.23504806 19133 Delphini 1 1 44030U 98067PW 19143.34298511 .00006840 00000-0 10295-3 0 9990 2 44030 51.6377 122.8376 0005654 49.8354 310.3132 15.56088489 17447 MYSat 1 1 44045U 18092F 19143.35094314 .00001450 00000-0 53471-4 0 9998 2 44045 51.6400 138.4495 0011902 354.0885 5.9950 15.34813845 15191 AstroCast 0.2 1 44083U 19018F 19143.76066486 .00000348 00000-0 18643-4 0 9990 2 44083 97.4704 203.9472 0015737 98.7509 261.5510 15.21350187 7976 AISTechSat 3 1 44103U 19018AB 19143.71904366 .00000637 00000-0 30428-4 0 9992 2 44103 97.4583 203.9014 0015279 115.6546 244.6271 15.22579771 7965 AISat 1 1 44104U 19018AC 19143.77792870 .00000677 00000-0 24561-4 0 9999 2 44104 97.5114 204.9086 0059940 157.1412 203.2517 15.30414084 8041 /EX
